| time (UTC) | temp F | wind direction | speed MPH | gust MPH | rain 1hr in | rain 24hr in | rain mn in | humidity % | barometer mb |
| 20260904175002 | 91 | 159 | 4.0 | 10.0 | 0.00 | 0.00 | 0.00 | 73 | 1013.7 |
| 20260904174004 | 91 | 136 | 3.0 | 8.0 | 0.00 | 0.00 | 0.00 | 75 | 1013.9 |
| 20260904173002 | 88 | 134 | 2.0 | 6.0 | 0.00 | 0.00 | 0.00 | 79 | 1014.1 |
| 20260904172004 | 88 | 198 | 3.0 | 6.0 | 0.00 | 0.00 | 0.00 | 78 | 1014.2 |
| 20260904171002 | 88 | 227 | 3.0 | 7.0 | 0.00 | 0.00 | 0.00 | 77 | 1014.1 |
| 20260904170025 | 87 | 195 | 4.0 | 10.0 | 0.00 | 0.00 | 0.00 | 77 | 1014.2 |
| 20260904165002 | 88 | 215 | 4.0 | 7.0 | 0.00 | 0.10 | 0.00 | 77 | 1014.1 |
| 20260904164002 | 88 | 240 | 5.0 | 9.0 | 0.00 | 0.10 | 0.00 | 75 | 1014.2 |
| 20260904163002 | 89 | 221 | 6.0 | 10.0 | 0.00 | 0.10 | 0.00 | 73 | 1014.5 |
| 20260904162002 | 90 | 223 | 5.0 | 10.0 | 0.00 | 0.10 | 0.00 | 72 | 1014.5 |
| 20260904161002 | 91 | 236 | 5.0 | 10.0 | 0.00 | 0.10 | 0.00 | 71 | 1014.6 |
| 20260904155004 | 90 | 211 | 5.0 | 9.0 | 0.00 | 0.10 | 0.00 | 71 | 1014.5 |
| 20260904154002 | 90 | 202 | 4.0 | 9.0 | 0.00 | 0.10 | 0.00 | 71 | 1014.5 |
| 20260904152002 | 89 | 191 | 3.0 | 7.0 | 0.00 | 0.10 | 0.00 | 75 | 1014.6 |
| 20260904151004 | 87 | 211 | 4.0 | 9.0 | 0.00 | 0.10 | 0.00 | 77 | 1014.6 |
| 20260904145002 | 89 | 159 | 2.0 | 9.0 | 0.00 | 0.10 | 0.00 | 78 | 1014.3 |
| 20260904144002 | 87 | 229 | 3.0 | 7.0 | 0.00 | 0.10 | 0.00 | 78 | 1014.2 |
| 20260904143002 | 88 | 202 | 2.0 | 6.0 | 0.00 | 0.10 | 0.00 | 78 | 1014.1 |
| 20260904142004 | 88 | 211 | 3.0 | 7.0 | 0.00 | 0.10 | 0.00 | 82 | 1014.0 |
| 20260904140007 | 87 | 194 | 1.0 | 6.0 | 0.00 | 0.10 | 0.00 | 83 | 1013.9 |
| 20260904135002 | 86 | 219 | 1.0 | 7.0 | 0.00 | 0.10 | 0.00 | 85 | 1014.1 |
| 20260904134004 | 86 | 193 | 1.0 | 5.0 | 0.00 | 0.10 | 0.00 | 86 | 1014.1 |
| 20260904133002 | 85 | 206 | 0.0 | 5.0 | 0.00 | 0.10 | 0.00 | 86 | 1013.9 |
| 20260904131002 | 84 | 181 | 0.0 | 3.0 | 0.00 | 0.10 | 0.00 | 89 | 1013.8 |
| 20260904130006 | 82 | 150 | 0.0 | 3.0 | 0.00 | 0.10 | 0.00 | 90 | 1013.7 |
| 20260904125002 | 82 | 159 | 1.0 | 5.0 | 0.00 | 0.10 | 0.00 | 91 | 1013.6 |
| 20260904124004 | 80 | 114 | 1.0 | 5.0 | 0.00 | 0.10 | 0.00 | 94 | 1013.5 |
| 20260904123002 | 79 | 128 | 1.0 | 4.0 | 0.00 | 0.10 | 0.00 | 96 | 1013.5 |
| 20260904122004 | 79 | 124 | 1.0 | 3.0 | 0.00 | 0.10 | 0.00 | 96 | 1013.5 |
| 20260904121002 | 78 | 126 | 0.0 | 0.0 | 0.00 | 0.10 | 0.00 | 96 | 1013.5 |
| 20260904120005 | 77 | 126 | 0.0 | 0.0 | 0.00 | 0.10 | 0.00 | 96 | 1013.4 |
| 20260904114003 | 76 | 126 | 0.0 | 0.0 | 0.00 | 0.10 | 0.00 | 96 | 1013.4 |
| 20260904112003 | 76 | 126 | 0.0 | 0.0 | 0.00 | 0.10 | 0.00 | 95 | 1013.1 |
| 20260904111001 | 76 | 126 | 0.0 | 0.0 | 0.00 | 0.10 | 0.00 | 95 | 1013.1 |
| 20260904110005 | 76 | 126 | 0.0 | 0.0 | 0.00 | 0.10 | 0.00 | 95 | 1013.1 |
| 20260904102003 | 76 | 126 | 0.0 | 0.0 | 0.00 | 0.10 | 0.00 | 95 | 1012.8 |
| 20260904101001 | 76 | 126 | 0.0 | 0.0 | 0.00 | 0.10 | 0.00 | 95 | 1012.5 |
| 20260904100005 | 76 | 126 | 0.0 | 0.0 | 0.00 | 0.10 | 0.00 | 95 | 1012.4 |
| 20260904095001 | 76 | 126 | 0.0 | 0.0 | 0.00 | 0.10 | 0.00 | 95 | 1012.2 |
| 20260904094001 | 76 | 126 | 0.0 | 0.0 | 0.00 | 0.10 | 0.00 | 95 | 1012.2 |
| 20260904093001 | 76 | 126 | 0.0 | 0.0 | 0.00 | 0.10 | 0.00 | 95 | 1012.1 |
| 20260904092001 | 76 | 126 | 0.0 | 0.0 | 0.00 | 0.10 | 0.00 | 95 | 1012.0 |
| 20260904091001 | 76 | 126 | 0.0 | 0.0 | 0.00 | 0.10 | 0.00 | 95 | 1012.0 |
| 20260904090003 | 76 | 126 | 0.0 | 0.0 | 0.00 | 0.10 | 0.00 | 94 | 1012.0 |
| 20260904085003 | 76 | 126 | 0.0 | 0.0 | 0.00 | 0.10 | 0.00 | 95 | 1012.1 |
| 20260904084001 | 76 | 126 | 0.0 | 0.0 | 0.00 | 0.10 | 0.00 | 94 | 1012.2 |
| 20260904083003 | 76 | 126 | 0.0 | 0.0 | 0.00 | 0.10 | 0.00 | 94 | 1012.1 |
| 20260904082001 | 76 | 126 | 0.0 | 0.0 | 0.00 | 0.10 | 0.00 | 94 | 1012.0 |
| 20260904081003 | 76 | 126 | 0.0 | 0.0 | 0.00 | 0.10 | 0.00 | 94 | 1012.0 |
| 20260904080003 | 76 | 126 | 0.0 | 0.0 | 0.00 | 0.10 | 0.00 | 94 | 1012.1 |
| 20260904073003 | 76 | 126 | 0.0 | 0.0 | 0.00 | 0.10 | 0.00 | 94 | 1012.0 |
| 20260904072001 | 77 | 126 | 0.0 | 1.0 | 0.00 | 0.10 | 0.00 | 94 | 1011.9 |
| 20260904071003 | 77 | 126 | 0.0 | 2.0 | 0.00 | 0.10 | 0.00 | 94 | 1011.9 |
| 20260904070003 | 77 | 126 | 0.0 | 0.0 | 0.00 | 0.10 | 0.00 | 94 | 1012.0 |
| 20260904065000 | 77 | 126 | 0.0 | 0.0 | 0.00 | 0.10 | 0.00 | 94 | 1012.2 |
| 20260904064002 | 77 | 126 | 0.0 | 0.0 | 0.00 | 0.10 | 0.00 | 94 | 1012.2 |
| 20260904063001 | 77 | 126 | 0.0 | 0.0 | 0.00 | 0.10 | 0.00 | 94 | 1012.2 |
| 20260904062003 | 77 | 126 | 0.0 | 0.0 | 0.00 | 0.10 | 0.00 | 94 | 1012.3 |
| 20260904061000 | 77 | 127 | 0.0 | 0.0 | 0.00 | 0.10 | 0.00 | 93 | 1012.2 |
| 20260904060023 | 77 | 127 | 0.0 | 0.0 | 0.00 | 0.10 | 0.00 | 93 | 1012.3 |
| 20260904055001 | 77 | 128 | 0.0 | 0.0 | 0.00 | 0.11 | 0.00 | 93 | 1012.5 |
| 20260904054003 | 78 | 129 | 0.0 | 0.0 | 0.00 | 0.11 | 0.00 | 93 | 1012.6 |
| 20260904053001 | 78 | 129 | 0.0 | 0.0 | 0.00 | 0.11 | 0.00 | 93 | 1012.6 |
| 20260904052003 | 78 | 130 | 0.0 | 0.0 | 0.00 | 0.11 | 0.00 | 93 | 1012.6 |
| 20260904051000 | 78 | 130 | 0.0 | 0.0 | 0.00 | 0.11 | 0.00 | 92 | 1012.8 |
| 20260904045003 | 78 | 137 | 1.0 | 3.0 | 0.00 | 0.14 | 0.00 | 91 | 1012.7 |
| 20260904044004 | 79 | 139 | 0.0 | 0.0 | 0.00 | 0.14 | 0.00 | 91 | 1012.9 |
| 20260904043003 | 79 | 139 | 0.0 | 0.0 | 0.00 | 0.14 | 0.00 | 91 | 1013.1 |
| 20260904042004 | 79 | 140 | 0.0 | 0.0 | 0.00 | 0.14 | 0.00 | 91 | 1013.2 |
| 20260904041002 | 79 | 140 | 1.0 | 4.0 | 0.00 | 0.14 | 0.00 | 91 | 1013.0 |
| 20260904040009 | 79 | 140 | 1.0 | 3.0 | 0.00 | 0.14 | 0.00 | 91 | 1013.0 |
| 20260904034005 | 79 | 140 | 1.0 | 5.0 | 0.00 | 0.17 | 0.14 | 91 | 1013.0 |
| 20260904031003 | 79 | 128 | 1.0 | 4.0 | 0.00 | 0.17 | 0.14 | 91 | 1012.8 |
| 20260904030007 | 79 | 109 | 1.0 | 4.0 | 0.00 | 0.17 | 0.14 | 91 | 1012.8 |
| 20260904025002 | 79 | 99 | 1.0 | 3.0 | 0.00 | 0.25 | 0.14 | 91 | 1012.7 |
| 20260904024005 | 79 | 98 | 1.0 | 7.0 | 0.00 | 0.25 | 0.14 | 90 | 1012.7 |
| 20260904022005 | 80 | 109 | 2.0 | 6.0 | 0.00 | 0.25 | 0.14 | 90 | 1012.9 |
| 20260904020006 | 80 | 116 | 2.0 | 6.0 | 0.00 | 0.25 | 0.14 | 89 | 1013.1 |
| 20260904015002 | 80 | 105 | 4.0 | 7.0 | 0.00 | 0.25 | 0.14 | 89 | 1012.9 |
| 20260904014005 | 80 | 111 | 4.0 | 8.0 | 0.00 | 0.25 | 0.14 | 89 | 1012.9 |
| 20260904013002 | 80 | 101 | 3.0 | 7.0 | 0.00 | 0.25 | 0.14 | 89 | 1012.8 |
| 20260904012005 | 80 | 114 | 2.0 | 4.0 | 0.00 | 0.25 | 0.14 | 89 | 1012.8 |
| 20260904011002 | 80 | 105 | 2.0 | 4.0 | 0.00 | 0.25 | 0.14 | 89 | 1012.6 |
| 20260904010007 | 81 | 108 | 1.0 | 6.0 | 0.00 | 0.25 | 0.14 | 89 | 1012.5 |
| 20260904004004 | 81 | 112 | 0.0 | 3.0 | 0.00 | 0.25 | 0.14 | 88 | 1012.2 |
| 20260904001002 | 81 | 119 | 1.0 | 4.0 | 0.00 | 0.25 | 0.14 | 86 | 1011.9 |
| 20260903235002 | 82 | 134 | 1.0 | 4.0 | 0.00 | 0.25 | 0.14 | 86 | 1012.1 |
| 20260903234004 | 82 | 102 | 2.0 | 6.0 | 0.00 | 0.25 | 0.14 | 85 | 1012.1 |
| 20260903233002 | 82 | 111 | 1.0 | 7.0 | 0.00 | 0.25 | 0.14 | 85 | 1012.1 |
| 20260903232004 | 83 | 115 | 1.0 | 5.0 | 0.00 | 0.25 | 0.14 | 85 | 1012.1 |
| 20260903231002 | 83 | 103 | 2.0 | 7.0 | 0.00 | 0.25 | 0.14 | 84 | 1012.1 |
| 20260903225002 | 84 | 92 | 2.0 | 6.0 | 0.00 | 0.25 | 0.14 | 84 | 1011.9 |
| 20260903223002 | 84 | 124 | 1.0 | 4.0 | 0.00 | 0.25 | 0.14 | 82 | 1011.5 |
| 20260903221002 | 85 | 94 | 2.0 | 4.0 | 0.00 | 0.25 | 0.14 | 81 | 1011.4 |
| 20260903220006 | 85 | 98 | 2.0 | 6.0 | 0.00 | 0.25 | 0.14 | 80 | 1011.2 |
| 20260903215002 | 86 | 90 | 3.0 | 7.0 | 0.00 | 0.25 | 0.14 | 80 | 1011.0 |
| 20260903214002 | 87 | 139 | 1.0 | 6.0 | 0.00 | 0.25 | 0.14 | 78 | 1011.0 |
| 20260903213002 | 87 | 5 | 1.0 | 5.0 | 0.00 | 0.25 | 0.14 | 77 | 1010.9 |
| 20260903211002 | 87 | 31 | 1.0 | 6.0 | 0.00 | 0.25 | 0.14 | 79 | 1010.6 |
| 20260903210004 | 87 | 83 | 1.0 | 4.0 | 0.00 | 0.25 | 0.14 | 80 | 1010.6 |
| 20260903205002 | 86 | 13 | 2.0 | 5.0 | 0.00 | 0.25 | 0.14 | 82 | 1010.6 |
| 20260903204002 | 86 | 288 | 2.0 | 8.0 | 0.00 | 0.25 | 0.14 | 81 | 1011.0 |
| 20260903203002 | 86 | 355 | 1.0 | 5.0 | 0.00 | 0.25 | 0.14 | 80 | 1011.2 |
| 20260903202002 | 86 | 338 | 1.0 | 4.0 | 0.00 | 0.25 | 0.14 | 78 | 1011.4 |
| 20260903201002 | 87 | 59 | 2.0 | 6.0 | 0.00 | 0.25 | 0.14 | 78 | 1011.5 |
| 20260903200005 | 86 | 63 | 3.0 | 8.0 | 0.00 | 0.25 | 0.14 | 79 | 1011.6 |
| 20260903195004 | 87 | 312 | 2.0 | 5.0 | 0.00 | 0.25 | 0.14 | 79 | 1011.5 |
| 20260903194002 | 88 | 313 | 4.0 | 7.0 | 0.00 | 0.25 | 0.14 | 76 | 1011.5 |
| 20260903193004 | 89 | 217 | 6.0 | 12.0 | 0.00 | 0.25 | 0.14 | 74 | 1011.6 |
| 20260903192002 | 90 | 209 | 5.0 | 10.0 | 0.00 | 0.25 | 0.14 | 71 | 1011.5 |
| 20260903191004 | 90 | 207 | 4.0 | 8.0 | 0.00 | 0.25 | 0.14 | 70 | 1011.5 |
| 20260903190005 | 91 | 191 | 2.0 | 6.0 | 0.00 | 0.25 | 0.14 | 68 | 1011.6 |
| 20260903185002 | 90 | 184 | 2.0 | 8.0 | 0.00 | 0.25 | 0.14 | 68 | 1011.8 |
| 20260903184002 | 86 | 207 | 1.0 | 6.0 | 0.00 | 0.25 | 0.14 | 79 | 1011.8 |
| 20260903183002 | 87 | 178 | 3.0 | 8.0 | 0.00 | 0.25 | 0.14 | 76 | 1011.7 |
| 20260903181002 | 88 | 214 | 5.0 | 10.0 | 0.00 | 0.25 | 0.14 | 71 | 1011.8 |
| 20260903180006 | 90 | 182 | 5.0 | 11.0 | 0.00 | 0.25 | 0.14 | 73 | 1011.9 |